This is the latest recevied weather packets stored in our database for station/object NI0Z. If no packets are shown the sender has not sent any weather packets the latest 10 day(s).
| Time | Temp. | Humidity | Pressure | Rain* | Wind** | Luminosity | Snow |
|---|---|---|---|---|---|---|---|
| 1777746572 | 15° C | 41% | - | 0 mm | - | - | - |
| 1777746268 | 15° C | 39% | - | 0 mm | - | - | - |
| 1777745964 | 15° C | 40% | - | 0 mm | - | - | - |
| 1777745663 | 14.44° C | 40% | - | 0 mm | - | - | - |
| 1777745361 | 15° C | 39% | - | 0 mm | - | - | - |
| 1777745058 | 14.44° C | 43% | - | 0 mm | - | - | - |
| 1777744754 | 14.44° C | 39% | - | 0 mm | - | - | - |
| 1777744449 | 14.44° C | 38% | - | 0 mm | - | - | - |
| 1777744145 | 13.89° C | 37% | - | 0 mm | - | - | - |
| 1777743842 | 14.44° C | 43% | - | 0 mm | - | - | - |
| 1777743538 | 14.44° C | 43% | - | 0 mm | - | - | - |
| 1777743235 | 13.89° C | 42% | - | 0 mm | - | - | - |
| 1777742934 | 13.89° C | 44% | - | 0 mm | - | - | - |
| 1777742630 | 13.89° C | 39% | - | 0 mm | - | - | - |
| 1777742326 | 13.33° C | 41% | - | 0 mm | - | - | - |
| 1777742023 | 13.33° C | 41% | - | 0 mm | - | - | - |
| 1777741720 | 13.33° C | 41% | - | 0 mm | - | - | - |
| 1777741417 | 13.89° C | 41% | - | 0 mm | - | - | - |
| 1777741112 | 12.78° C | 50% | - | 0 mm | - | - | - |
| 1777740810 | 12.78° C | 42% | - | 0 mm | - | - | - |
| 1777740507 | 12.78° C | 43% | - | 0 mm | - | - | - |
| 1777740204 | 13.33° C | 49% | - | 0 mm | - | - | - |
| 1777739900 | 12.78° C | 51% | - | 0 mm | - | - | - |
| 1777739596 | 12.78° C | 50% | - | 0 mm | - | - | - |
| 1777739294 | 12.78° C | 48% | - | 0 mm | - | - | - |
* Rain latest hour (hover to see other rain measurements)
** Current wind speed in m/s (hover to see current wind gust speed)